{"data":{"norad_id":59305,"epoch":"2026-09-21T12:31:59.410560Z","epoch_age_seconds":73940,"freshness":"FRESH","line1":"1 59305U 24056K   26264.52221540  .00000006  00000+0  97241-5 0  9993","line2":"2 59305  43.0037 204.8100 0001051 282.6840  77.3894 15.27576909141109","mean_motion":15.27576909,"eccentricity":0.0001051,"inclination_deg":43.0037,"raan_deg":204.81,"arg_perigee_deg":282.684,"mean_anomaly_deg":77.3894,"bstar":9.7241e-6,"rev_number":14110,"period_min":94.266939459216,"perigee_km":482.33723998979,"apogee_km":483.7794632527,"semimajor_km":6861.1953516212,"source":"CELESTRAK","updated_at":"2026-09-22T09:00:48.876680Z"}}